Preview of NWS' New Version of Forecast
This preview is not operational and should not be used for support decisions.

Regional Weather Roundup (RWR)

Issued by National Weather Service (NWS)

                            
000
ASUS43 KLSX 240357
RWRMO 

WEATHER SUMMARY FOR MISSOURI
NATIONAL WEATHER SERVICE SPRINGFIELD MO
1100 PM CDT THU MAY 23 2019

NOTE: "FAIR" INDICATES FEW OR NO CLOUDS BELOW 12,000 FEET WITH NO
       SIGNIFICANT WEATHER AND/OR OBSTRUCTIONS TO VISIBILITY.
       CURRENT SKY AND/OR WEATHER CONDITIONS ARE NOT AVAILABLE FOR
       CHILLICOTHE AND FARMINGTON.

MOZ001>031-035>038-043-044-053-054-240500-
...NORTHERN AND WESTERN MISSOURI...
  
CITY           SKY/WX    TMP DP  RH WIND       PRES   REMARKS
KANSAS CTY INT CLOUDY    70  63  78 SE13      30.00R                  
LEE'S SUMMIT   CLOUDY    71  66  84 SE7       30.01R                  
ST JOSEPH      LGT RAIN  69  60  73 SE12G21   29.98R                  
CHILLICOTHE      N/A     70  62  76 N3        30.02R                  
     
$$
MOZ066>068-077>081-088>096-101>105-240500-
...SOUTHWEST MISSOURI...
  
CITY           SKY/WX    TMP DP  RH WIND       PRES   REMARKS
SPRINGFIELD    CLEAR     74  66  76 S8        30.04R                  
JOPLIN         CLEAR     75  67  76 SE8       30.01S                  
               
$$
MOZ032>034-039>042-045>050-055>058-069>072-240500-
...CENTRAL MISSOURI...  
  
CITY           SKY/WX    TMP DP  RH WIND       PRES   REMARKS
COLUMBIA       NOT AVBL                                               
ROLLA          PTCLDY    71  68  90 SE6       30.07R                  
SEDALIA        CLOUDY    69  69 100 SE9       30.02S                  
WARRENSBURG    MOCLDY    70  66  88 E6        30.00S                  
               
$$
MOZ051-052-059>065-240500-
...EAST CENTRAL MISSOURI...
  
CITY           SKY/WX    TMP DP  RH WIND       PRES   REMARKS
ST LOUIS INTL  MOCLDY    75  65  70 SE7       30.07S                  
                   
$$
MOZ072>076-082>087-097>100-106>115-240500-
...SOUTH CENTRAL AND SOUTHEAST MISSOURI...
  
CITY           SKY/WX    TMP DP  RH WIND       PRES   REMARKS
CAPE GIRARDEAU FAIR      74  68  81 S3        30.07S                  
POPLAR BLUFF   FAIR      73  72  96 CALM      30.07R                  
WEST PLAINS    CLEAR     75  67  76 S7        30.09R                  
                                       
$$